Flag for Germany Weather past 2 weeks in Lindlar, North Rhine-Westphalia, Germany

Now
63 °F

Partly sunny.


Feels Like: 63 °F
Forecast: 52 / 77 °F
Wind: 1 mph from West

Location: Koeln / Bonn

Current Time: Aug 4, 2015 at 6:49:19 PM

Latest Report: Aug 4, 2015 at 6:00 PM


Visibility: 31 mi

Pressure: 30.03 "Hg

Humidity: 91%

Dew point: 60 °F

Location of LindlarLocation

Historic Weather in Lindlar — Graph

°F

Lindlar temperature yesterday

Maximum temperature yesterday: 92 °F (at 6:00 PM)
Minimum temperature yesterday: 60 °F (at 4:00 AM)
Average temperature yesterday: 77 °F

Past Weeks' High & Low Weather Summary

 TemperatureHumidityPressure
High92 °F (Aug 3, 6:00 PM)100% (Jul 31, 5:00 AM)30.17 "Hg (Jul 31, 5:00 AM)
Low48 °F (Jul 26, 5:00 AM)24% (Aug 3, 7:00 PM)29.56 "Hg (Jul 25, 8:00 AM)
Average65 °F69%29.91 "Hg
* Reported Jul 20 5:00 PM — Aug 4 5:00 PM, Lindlar, Weather by CustomWeather, © 2015

Note: Actual official high and low records may vary slightly from our data, if they occured in-between our weather recording intervals... More about our weather records

Advertising

Lindlar weather history for previous 24 hours

 ConditionsComfort  
Time TempWeatherWind HumidityBarometerVisibility
5:00 PM
Tue, Aug 4
62 °FLight rain. Overcast.5 mph90%30.02 "Hg9 mi
4:00 PM63 °FRain. Low clouds.7 mph93%29.98 "Hg5 mi
3:00 PM68 °FLight rain. Low clouds.1 mph94%29.95 "Hg6 mi
2:00 PM67 °FOvercast.2 mph95%29.94 "Hg22 mi
1:00 PM67 °FRain. Overcast.2 mph94%29.95 "Hg7 mi
12:00 PM67 °FLight rain. Overcast.1 mph89%29.94 "Hg7 mi
11:00 AM74 °FLight rain. Overcast.5 mph62%29.90 "Hg9 mi
10:00 AM77 °FOvercast.2 mph49%29.86 "Hg25 mi
9:00 AM76 °FOvercast.2 mph49%29.85 "Hg25 mi
8:00 AM73 °FOvercast.2 mph51%29.86 "Hg19 mi
7:00 AM72 °FOvercast.3 mph52%29.82 "Hg25 mi
5:00 AM72 °FPassing clouds.3 mph52%29.83 "Hg25 mi
4:00 AM72 °FPassing clouds.5 mph51%29.85 "Hg25 mi
3:00 AM73 °FPassing clouds.3 mph50%29.87 "Hg28 mi
2:00 AM73 °FPassing clouds.2 mph51%29.89 "Hg25 mi
1:00 AM75 °FPassing clouds.2 mph48%29.90 "Hg25 mi
11:00 PM
Mon, Aug 3
78 °FPassing clouds.2 mph46%29.90 "Hg31 mi
10:00 PM78 °FPassing clouds.3 mph46%29.90 "Hg31 mi
9:00 PM81 °FPartly sunny.2 mph42%29.90 "Hg37 mi
8:00 PM88 °FPartly sunny.2 mph31%29.90 "Hg31 mi
7:00 PM92 °FScattered clouds.3 mph24%29.90 "Hg31 mi
6:00 PM92 °FPassing clouds.5 mph25%29.91 "Hg31 mi
Weather by CustomWeather, © 2015

See weather overviewHow to use our weather pages